This is the latest recevied weather packets stored in our database for station/object DO8TBO-15. If no packets are shown the sender has not sent any weather packets the latest 10 day(s).
| Time | Temp. | Humidity | Pressure | Rain* | Wind** | Luminosity | Snow |
|---|---|---|---|---|---|---|---|
| 1777478150 | 17.22° C | - | 1024.5 hPa | 0 mm | - | - | - |
| 1777477546 | 16.67° C | - | 1024.4 hPa | 0 mm | - | - | - |
| 1777476942 | 17.78° C | - | 1024.5 hPa | 0 mm | - | - | - |
| 1777476338 | 17.22° C | - | 1024.5 hPa | 0 mm | - | - | - |
| 1777475735 | 17.22° C | - | 1024.4 hPa | 0 mm | - | - | - |
| 1777475131 | 17.78° C | - | 1024.4 hPa | 0 mm | - | - | - |
| 1777474527 | 17.78° C | - | 1024.4 hPa | 0 mm | - | - | - |
| 1777473923 | 17.78° C | - | 1024.5 hPa | 0 mm | - | - | - |
| 1777473319 | 17.78° C | - | 1024.5 hPa | 0 mm | - | - | - |
| 1777472716 | 18.33° C | - | 1024.4 hPa | 0 mm | - | - | - |
| 1777472173 | 17.78° C | - | 1024.3 hPa | 0 mm | - | - | - |
| 1777471569 | 18.33° C | - | 1024.3 hPa | 0 mm | - | - | - |
| 1777470965 | 18.33° C | - | 1024.2 hPa | 0 mm | - | - | - |
| 1777470361 | 18.33° C | - | 1024.3 hPa | 0 mm | - | - | - |
| 1777469757 | 17.78° C | - | 1024.2 hPa | 0 mm | - | - | - |
| 1777469153 | 17.78° C | - | 1024.2 hPa | 0 mm | - | - | - |
| 1777468550 | 17.78° C | - | 1024.1 hPa | 0 mm | - | - | - |
| 1777467946 | 17.78° C | - | 1024.1 hPa | 0 mm | - | - | - |
| 1777467343 | 18.33° C | - | 1024 hPa | 0 mm | - | - | - |
| 1777466738 | 18.33° C | - | 1024.1 hPa | 0 mm | - | - | - |
| 1777466135 | 17.78° C | - | 1024 hPa | 0 mm | - | - | - |
| 1777465591 | 17.78° C | - | 1024.2 hPa | 0 mm | - | - | - |
| 1777464958 | 17.78° C | - | 1024.2 hPa | 0 mm | - | - | - |
| 1777464354 | 17.22° C | - | 1024.1 hPa | 0 mm | - | - | - |
| 1777463750 | 17.22° C | - | 1024.2 hPa | 0 mm | - | - | - |
* Rain latest hour (hover to see other rain measurements)
** Current wind speed in m/s (hover to see current wind gust speed)